Content
SEND FEEDBACK

Daily
Averages
Monthly
Summary
United States of America

ACHANG BAY, GUAM


Home > North America > United States > Guam
Elevation: 30 feet     Latitude: 13 16N     Longitude: 144 45E

WEATHER
 
SELECT A DAY
Number of Records: 351,545;   Date Range: 1/1/95 - 10/19/14
 
SHARE

PRINT THIS DATA

[ ← Previous Day ]
WEATHER ALMANAC - JANUARY 29, 2014
[ Next Day → ]
[ °C ]   °F
Weather ElementAverageHighLow
Temperature78.1 °F79.2 °F (3:58 pm)75.2 °F (5:48 pm)
Dewpoint68.9 °F78.8 °F (1:10 am) (7:00 pm)
Humidity97 %100 % (1:10 am)83 % (5:10 am)
Barometer29.76 in29.85 in (10:08 pm)29.68 in (2:58 pm)
Wind Speed17 mph31.1 mph (5:53 pm)
Wind Gust42.6 mph (5:53 pm)
Weather ElementAverage
Visibility7 mi
Wind DirectionENE (72.6 °)

Weather ElementTotal
Precipitation3.33 in
Cooling Degree Days12.2 (Base 65)
Growing Degree Days27.2 (Base 50)
Averaged from 159 records on January 29, 2014
WEATHER CONDITIONS BREAKOUT
WIND DIRECTION BREAKOUT
WEATHER BY HOUR - JANUARY 29, 2014
[ °C ]   °F
Local TimeTemperatureDewpointHumidityBarometerVisibilityWind DirectionWind SpeedGust SpeedPrecipitationEventsConditions
12:38 AM78.8 °F77.0 °F94 %29.75 in10.0 miENE (60°)20.7 mph26.5 mphOvercast
12:58 AM78.8 °F77.0 °F94 %29.72 in10.0 miENE (60°)19.6 mphOvercast
1:10 AM78.8 °F78.8 °F100 %29.75 in7.0 miENE (60°)20.7 mph31.1 mphRainLight Rain
1:15 AM78.8 °F78.8 °F100 %29.75 in6.0 miENE (60°)21.9 mph31.1 mphRainLight Rain
1:20 AM78.8 °F78.8 °F100 %29.75 in9.0 miENE (60°)21.9 mph34.5 mphMostly Cloudy
1:25 AM78.8 °F78.8 °F100 %29.75 in10.0 miENE (60°)20.7 mph34.5 mphMostly Cloudy
1:35 AM78.8 °F75.2 °F89 %29.74 in10.0 miNE (50°)24.2 mph28.8 mphMostly Cloudy
1:45 AM78.8 °F75.2 °F89 %29.74 in10.0 miENE (60°)19.6 mph28.8 mphMostly Cloudy
1:55 AM78.8 °F75.2 °F89 %29.74 in10.0 miENE (60°)23.0 mph27.6 mphMostly Cloudy
1:58 AM78.3 °F74.8 °F89 %29.71 in10.0 miENE (60°)18.4 mph28.8 mph0.01 inMostly Cloudy
2:08 AM78.8 °F75.2 °F89 %29.74 in10.0 miNE (50°)21.9 mph27.6 mphMostly Cloudy
2:18 AM78.8 °F75.2 °F89 %29.73 in10.0 miNE (50°)18.4 mph27.6 mphMostly Cloudy
2:48 AM78.8 °F75.2 °F89 %29.72 in10.0 miENE (60°)21.9 mph27.6 mphMostly Cloudy
2:58 AM78.6 °F74.8 °F88 %29.69 in10.0 miNE (50°)19.6 mph26.5 mphScattered Clouds
3:03 AM78.8 °F75.2 °F89 %29.72 in10.0 miENE (60°)21.9 mph29.9 mphMostly Cloudy
3:13 AM78.8 °F75.2 °F89 %29.71 in10.0 miENE (60°)24.2 mph32.2 mphScattered Clouds
3:28 AM78.8 °F75.2 °F89 %29.72 in10.0 miENE (60°)18.4 mph26.5 mphMostly Cloudy
3:33 AM78.8 °F75.2 °F89 %29.71 in10.0 miNE (50°)20.7 mph26.5 mphMostly Cloudy
3:43 AM78.8 °F78.8 °F100 %29.72 in10.0 miENE (60°)18.4 mph27.6 mphMostly Cloudy
3:47 AM78.8 °F78.8 °F100 %29.72 in5.0 miEast (80°)26.5 mph29.9 mphRainLight Rain
3:52 AM77.0 °F77.0 °F100 %29.72 in1.2 miENE (70°)18.4 mph35.7 mphRainHeavy Rain
3:57 AM77.0 °F77.0 °F100 %29.72 in1.2 miENE (60°)16.1 mph35.7 mphRainHeavy Rain
3:58 AM77.0 °F77.0 °F100 %29.69 in1.2 miENE (60°)15.0 mph25.3 mph0.22 inRainHeavy Rain
4:03 AM77.0 °F77.0 °F100 %29.72 in3.0 miENE (60°)13.8 mph25.3 mphRainHeavy Rain
4:25 AM77.0 °F77.0 °F100 %29.72 in10.0 miNE (50°)13.8 mphMostly Cloudy
4:40 AM78.8 °F77.0 °F94 %29.72 in10.0 miNE (50°)18.4 mphMostly Cloudy
4:45 AM78.8 °F77.0 °F94 %29.72 in10.0 miENE (60°)15.0 mph23.0 mphScattered Clouds
4:55 AM77.0 °F73.4 °F89 %29.72 in10.0 miNE (50°)19.6 mph24.2 mphMostly Cloudy
4:58 AM77.0 °F73.4 °F89 %29.69 in8.0 miNE (50°)17.3 mph26.5 mph0.10 inMostly Cloudy
4:59 AM77.0 °F73.4 °F89 %29.72 in8.0 miNE (50°)17.3 mph26.5 mphRainLight Rain
5:10 AM77.0 °F71.6 °F83 %29.73 in10.0 miNE (50°)13.8 mphScattered Clouds
5:51 AM78.8 °F78.8 °F100 %29.73 in10.0 miNE (50°)19.6 mphRainLight Rain
5:58 AM78.3 °F78.1 °F99 %29.70 in10.0 miENE (60°)20.7 mph0.01 inRainLight Rain
6:00 AM78.8 °F78.8 °F100 %29.73 in10.0 miNE (50°)18.4 mph24.2 mphScattered Clouds
6:05 AM78.8 °F78.8 °F100 %29.73 in8.0 miNE (50°)17.3 mph24.2 mphRainLight Rain
6:17 AM78.8 °F0.0 °F29.73 in10.0 miNE (50°)13.8 mphScattered Clouds
6:50 AM78.8 °F78.8 °F100 %29.75 in10.0 miENE (60°)18.4 mphRainLight Rain
6:58 AM78.4 °F78.3 °F99 %29.72 in10.0 miENE (60°)16.1 mph0.02 inLight Drizzle
7:00 AM78.8 °F78.8 °F100 %29.75 in10.0 miNE (50°)16.1 mphScattered Clouds
7:12 AM78.8 °F0.0 °F29.76 in9.0 miNE (50°)15.0 mphRainLight Rain
7:17 AM77.0 °F77.0 °F100 %29.76 in5.0 miENE (60°)9.2 mphRainRain
7:42 AM77.0 °F77.0 °F100 %29.77 in0.8 miENE (70°)18.4 mph27.6 mphRainHeavy Rain
7:47 AM77.0 °F77.0 °F100 %29.77 in0.8 miEast (80°)17.3 mph27.6 mphRainLight Rain
7:52 AM77.0 °F77.0 °F100 %29.78 in1.8 miENE (60°)16.1 mph26.5 mphRainLight Rain
7:57 AM77.0 °F77.0 °F100 %29.78 in7.0 miENE (70°)20.7 mph26.5 mphRainLight Rain
7:58 AM77.0 °F77.0 °F100 %29.75 in8.0 miENE (70°)20.7 mph26.5 mph0.33 inRainLight Rain
8:23 AM78.8 °F0.0 °F29.80 in2.0 miEast (80°)16.1 mphRainHeavy Rain
8:43 AM78.8 °F78.8 °F100 %29.80 in4.0 miENE (60°)12.7 mphRainRain
8:48 AM78.8 °F78.8 °F100 %29.80 in5.0 miENE (60°)12.7 mphRainLight Rain
8:53 AM78.8 °F78.8 °F100 %29.80 in8.0 miENE (60°)16.1 mphRainLight Rain
8:58 AM78.8 °F78.8 °F100 %29.78 in10.0 miENE (60°)16.1 mph0.16 inRainLight Rain
9:02 AM78.8 °F78.8 °F100 %29.81 in10.0 miENE (70°)18.4 mph24.2 mphOvercast
9:03 AM78.8 °F78.8 °F100 %29.81 in10.0 miENE (70°)17.3 mph24.2 mphLight Drizzle
9:13 AM78.8 °F78.8 °F100 %29.81 in9.0 miENE (70°)17.3 mph26.5 mphLight Drizzle
9:23 AM78.8 °F78.8 °F100 %29.81 in7.0 miEast (80°)19.6 mphRainLight Rain
9:38 AM78.8 °F78.8 °F100 %29.81 in3.0 miENE (70°)23.0 mph27.6 mphRainLight Rain
9:58 AM77.0 °F77.0 °F100 %29.78 in3.0 miENE (70°)20.7 mph27.6 mph0.09 inRainRain
10:08 AM77.0 °F77.0 °F100 %29.81 in6.0 miEast (80°)12.7 mph26.5 mphRainLight Rain
10:18 AM78.8 °F78.8 °F100 %29.80 in2.0 miENE (60°)9.2 mph20.7 mphRainHeavy Rain
10:23 AM78.8 °F78.8 °F100 %29.79 in1.8 miNE (50°)23.0 mph27.6 mphRainHeavy Rain
10:28 AM78.8 °F78.8 °F100 %29.80 in2.0 miEast (80°)18.4 mph29.9 mphRainLight Rain
10:38 AM78.8 °F78.8 °F100 %29.80 in3.0 miENE (70°)23.0 mph29.9 mphRainLight Rain
10:43 AM78.8 °F78.8 °F100 %29.80 in1.8 miEast (80°)20.7 mph32.2 mphRainLight Rain
10:48 AM77.0 °F77.0 °F100 %29.80 in0.8 miENE (60°)17.3 mph32.2 mphRainHeavy Rain
10:53 AM77.0 °F77.0 °F100 %29.79 in0.8 miENE (70°)25.3 mph32.2 mphRainHeavy Rain
10:58 AM77.0 °F77.0 °F100 %29.76 in1.5 miEast (90°)17.3 mph32.2 mph0.44 inRainRain
11:03 AM77.0 °F77.0 °F100 %29.79 in4.0 miEast (80°)17.3 mph31.1 mphRainLight Rain
11:08 AM77.0 °F77.0 °F100 %29.79 in9.0 miEast (90°)16.1 mphRainLight Rain
11:13 AM77.0 °F77.0 °F100 %29.79 in10.0 miEast (90°)13.8 mphScattered Clouds
11:18 AM77.0 °F77.0 °F100 %29.78 in10.0 miEast (80°)15.0 mphMostly Cloudy
11:23 AM77.0 °F77.0 °F100 %29.78 in10.0 miEast (80°)15.0 mphScattered Clouds
11:34 AM78.8 °F78.8 °F100 %29.78 in10.0 miEast (80°)13.8 mphMostly Cloudy
11:39 AM78.8 °F78.8 °F100 %29.78 in10.0 miENE (70°)18.4 mphMostly Cloudy
11:45 AM78.8 °F0.0 °F29.77 in8.0 miENE (70°)20.7 mph28.8 mphRainLight Rain
11:55 AM77.0 °F77.0 °F100 %29.78 in9.0 miENE (60°)17.3 mph28.8 mphMostly Cloudy
11:58 AM77.0 °F77.0 °F100 %29.75 in10.0 miENE (60°)13.8 mph26.5 mph0.00 inMostly Cloudy
12:03 PM77.0 °F77.0 °F100 %29.77 in10.0 miENE (60°)13.8 mph23.0 mphMostly Cloudy
12:08 PM78.8 °F77.0 °F94 %29.77 in10.0 miENE (70°)16.1 mphMostly Cloudy
12:13 PM78.8 °F77.0 °F94 %29.76 in10.0 miENE (70°)12.7 mphMostly Cloudy
12:18 PM78.8 °F78.8 °F100 %29.76 in10.0 miEast (80°)13.8 mphMostly Cloudy
12:23 PM78.8 °F78.8 °F100 %29.76 in10.0 miEast (80°)13.8 mphMostly Cloudy
12:28 PM78.8 °F78.8 °F100 %29.76 in10.0 miENE (70°)12.7 mphMostly Cloudy
12:32 PM78.8 °F78.8 °F100 %29.76 in1.8 miEast (90°)12.7 mphRainHeavy Rain
12:42 PM77.0 °F77.0 °F100 %29.76 in2.5 miESE (110°)15.0 mph33.4 mphRainRain
12:47 PM77.0 °F77.0 °F100 %29.76 in2.5 miEast (100°)11.5 mph26.5 mphRainRain
12:52 PM77.0 °F77.0 °F100 %29.75 in4.0 miEast (90°)12.7 mphRainLight Rain
12:58 PM77.0 °F0.0 °F29.71 in7.0 miEast (90°)17.3 mph0.13 inRainLight Rain
1:00 PM77.0 °F0.0 °F29.75 in9.0 miEast (90°)18.4 mph24.2 mphOvercast
1:05 PM77.0 °F0.0 °F29.75 in10.0 miEast (90°)18.4 mph26.5 mphOvercast
1:20 PM78.8 °F0.0 °F29.74 in10.0 miEast (90°)16.1 mphScattered Clouds
1:25 PM78.8 °F0.0 °F29.74 in10.0 miEast (80°)17.3 mphMostly Cloudy
1:50 PM78.8 °F78.8 °F100 %29.73 in10.0 miEast (80°)12.7 mph21.9 mphOvercast
1:58 PM78.8 °F78.8 °F100 %29.70 in10.0 miEast (80°)18.4 mph21.9 mph0.00 inOvercast
2:14 PM78.8 °F0.0 °F29.72 in3.0 miEast (80°)17.3 mph27.6 mphRainRain
2:19 PM78.8 °F0.0 °F29.72 in2.0 miEast (80°)17.3 mph27.6 mphRainRain
2:24 PM78.8 °F0.0 °F29.72 in4.0 miEast (80°)18.4 mph27.6 mphRainLight Rain
2:39 PM78.8 °F0.0 °F29.71 in8.0 miEast (80°)18.4 mph27.6 mphRainLight Rain
2:58 PM78.8 °F77.0 °F94 %29.68 in7.0 miEast (80°)17.3 mph25.3 mph0.05 inRainLight Rain
3:08 PM77.0 °F77.0 °F100 %29.71 in10.0 miEast (80°)15.0 mph25.3 mphRainLight Rain
3:13 PM77.0 °F77.0 °F100 %29.71 in10.0 miEast (90°)20.7 mph26.5 mphRainLight Rain
3:29 PM78.8 °F77.0 °F94 %29.71 in10.0 miEast (90°)16.1 mph24.2 mphPartly Cloudy
3:58 PM79.2 °F78.4 °F98 %29.69 in10.0 miEast (80°)15.0 mph20.7 mph0.01 inPartly Cloudy
4:18 PM78.8 °F78.8 °F100 %29.73 in10.0 miEast (80°)18.4 mph25.3 mphMostly Cloudy
4:23 PM78.8 °F78.8 °F100 %29.74 in10.0 miENE (70°)19.6 mph24.2 mphMostly Cloudy
4:43 PM78.8 °F77.0 °F94 %29.74 in10.0 miENE (60°)17.3 mph23.0 mphOvercast
4:58 PM78.8 °F77.0 °F94 %29.70 in10.0 miENE (70°)16.1 mph21.9 mphOvercast
5:18 PM78.8 °F78.8 °F100 %29.73 in10.0 miENE (60°)15.0 mphMostly Cloudy
5:32 PM78.8 °F78.8 °F100 %29.74 in8.0 miENE (60°)15.0 mphRainLight Rain
5:37 PM78.8 °F78.8 °F100 %29.75 in1.5 miEast (100°)20.7 mph21.9 mphRainHeavy Rain
5:38 PM78.8 °F78.8 °F100 %29.75 in1.5 miEast (100°)24.2 mph27.6 mphRainHeavy Rain
5:43 PM77.0 °F77.0 °F100 %29.76 in0.5 miESE (120°)26.5 mph40.3 mphFog-RainHeavy Rain
5:48 PM75.2 °F75.2 °F100 %29.76 in0.2 miESE (110°)21.9 mph40.3 mphRainHeavy Rain
5:53 PM75.2 °F75.2 °F100 %29.76 in0.5 miESE (120°)31.1 mph42.6 mphRainHeavy Rain
5:58 PM75.2 °F75.2 °F100 %29.76 in0.2 miEast (100°)23.0 mph42.6 mph0.81 inRainHeavy Rain
6:01 PM75.2 °F75.2 °F100 %29.77 in0.5 miEast (80°)20.7 mph42.6 mphRainHeavy Rain
6:06 PM75.2 °F75.2 °F100 %29.77 in0.8 miENE (60°)17.3 mph26.5 mphRainRain
6:11 PM75.2 °F75.2 °F100 %29.76 in2.5 miENE (70°)18.4 mph26.5 mphRainLight Rain
6:16 PM75.2 °F75.2 °F100 %29.76 in7.0 miEast (80°)18.4 mph23.0 mphRainLight Rain
6:26 PM77.0 °F77.0 °F100 %29.76 in9.0 miENE (60°)15.0 mph20.7 mphLight Drizzle
6:31 PM77.0 °F77.0 °F100 %29.77 in7.0 miENE (60°)17.3 mph28.8 mphLight Drizzle
6:36 PM77.0 °F0.0 °F29.77 in6.0 miENE (70°)15.0 mph28.8 mphRainLight Rain
6:46 PM77.0 °F0.0 °F29.77 in1.2 miEast (90°)4.6 mph20.7 mphRainHeavy Rain
6:51 PM77.0 °F0.0 °F29.77 in1.2 miEast (100°)6.9 mph20.7 mphRainLight Rain
6:56 PM77.0 °F77.0 °F100 %29.77 in3.0 miEast (80°)12.7 mphRainLight Rain
6:58 PM77.0 °F77.0 °F100 %29.77 in7.0 miEast (80°)13.8 mph18.4 mph0.50 inRainLight Rain
7:03 PM77.0 °F77.0 °F100 %29.77 in10.0 miENE (70°)15.0 mph18.4 mphMostly Cloudy
7:10 PM78.8 °F77.0 °F94 %29.77 in10.0 miENE (70°)16.1 mph25.3 mphRainLight Rain
7:15 PM78.8 °F77.0 °F94 %29.78 in10.0 miEast (80°)16.1 mph25.3 mphRainLight Rain
7:20 PM78.8 °F77.0 °F94 %29.78 in10.0 miENE (70°)15.0 mph23.0 mphRainLight Rain
7:36 PM78.8 °F77.0 °F94 %29.79 in10.0 miENE (70°)16.1 mph24.2 mphPartly Cloudy
7:58 PM78.8 °F77.0 °F94 %29.80 in10.0 miEast (80°)15.0 mph23.0 mph0.01 inMostly Cloudy
8:08 PM78.8 °F77.0 °F94 %29.80 in10.0 miENE (70°)16.1 mph21.9 mphPartly Cloudy
8:09 PM78.8 °F77.0 °F94 %29.80 in10.0 miENE (70°)16.1 mph23.0 mphLight Drizzle
8:19 PM78.8 °F77.0 °F94 %29.80 in10.0 miENE (70°)16.1 mph24.2 mphMostly Cloudy
8:24 PM78.8 °F77.0 °F94 %29.80 in10.0 miEast (80°)18.4 mph24.2 mphMostly Cloudy
8:29 PM78.8 °F0.0 °F29.80 in10.0 miENE (70°)16.1 mph24.2 mphRainLight Rain
8:35 PM78.8 °F77.0 °F94 %29.80 in8.0 miENE (70°)16.1 mph21.9 mphRainLight Rain
8:40 PM78.8 °F77.0 °F94 %29.81 in8.0 miENE (70°)16.1 mph21.9 mphRainLight Rain
8:45 PM78.8 °F77.0 °F94 %29.81 in10.0 miENE (70°)15.0 mph21.9 mphLight Drizzle
8:46 PM78.8 °F77.0 °F94 %29.81 in10.0 miENE (70°)16.1 mph21.9 mphMostly Cloudy
8:51 PM78.8 °F77.0 °F94 %29.81 in9.0 miENE (70°)20.7 mph27.6 mphRainLight Rain
8:56 PM78.8 °F77.0 °F94 %29.82 in4.0 miEast (90°)16.1 mph27.6 mphRainRain
8:58 PM78.8 °F77.0 °F94 %29.82 in3.0 miEast (100°)12.7 mph27.6 mph0.03 inRainRain
9:03 PM77.0 °F77.0 °F100 %29.83 in1.8 miEast (90°)6.9 mph23.0 mphRainHeavy Rain
9:08 PM77.0 °F75.2 °F94 %29.82 in2.0 miEast (100°)6.9 mphRainRain
9:13 PM77.0 °F75.2 °F94 %29.82 in4.0 miEast (90°)5.8 mphRainRain
9:18 PM77.0 °F77.0 °F100 %29.82 in4.0 miEast (80°)13.8 mphRainLight Rain
9:43 PM78.8 °F77.0 °F94 %29.83 in10.0 miEast (80°)15.0 mph24.2 mphRainLight Rain
9:53 PM78.8 °F77.0 °F94 %29.84 in6.0 miEast (80°)18.4 mph28.8 mphRainLight Rain
9:58 PM78.8 °F77.0 °F94 %29.81 in6.0 miEast (80°)17.3 mph28.8 mph0.21 inRainLight Rain
10:03 PM78.8 °F77.0 °F94 %29.84 in7.0 miEast (80°)16.1 mph23.0 mphRainLight Rain
10:08 PM78.8 °F77.0 °F94 %29.85 in3.0 miEast (80°)17.3 mph23.0 mphRainHeavy Rain
10:18 PM78.8 °F77.0 °F94 %29.85 in7.0 miENE (70°)20.7 mph24.2 mphRainLight Rain
10:23 PM78.8 °F77.0 °F94 %29.85 in7.0 miEast (80°)13.8 mph23.0 mphRainRain
10:48 PM78.8 °F77.0 °F94 %29.84 in7.0 miEast (80°)15.0 mphRainLight Rain
10:58 PM78.8 °F77.0 °F94 %29.81 in5.0 miEast (80°)13.8 mph24.2 mph0.20 inRainRain
11:33 PM78.8 °F77.0 °F94 %29.83 in5.0 miEast (90°)11.5 mphRainRain
11:38 PM78.8 °F77.0 °F94 %29.83 in5.0 miEast (90°)10.4 mphRainRain
11:58 PM78.8 °F77.0 °F94 %29.81 in5.0 miEast (90°)13.8 mph24.2 mphRainLight Rain
Hourly data recorded from PGUA, located miles away from Achang Bay, Guam







STORIES FROM OUR PARTNERS